Tracking 35331 objects as of 16-Sep-2026
HD Live streaming from Space Station
objects crossing your sky now

VIGORIDE-3

Track VIGORIDE-3 now!
10-day predictions


NORAD ID: 52760
Int'l Code: 2022-057AE
Launch date: May 25, 2022
Source: United States (US)
Launch site: AIR FORCE EASTERN TEST RANGE (AFETR)
Your satellite tracking list
Your tracking list is empty




NASA's NSSDC Master Catalog

Two Line Element Set (TLE):
1 52760U 22057AE  26259.32696011  .00005512  00000-0  20389-3 0  9996
2 52760  97.6742  41.8461 0008651 155.3383 204.8271 15.28100214239078
Source of the keplerian elements: AFSPC